TimeCDT,TemperatureF,Dew PointF,Humidity,Sea Level PressureIn,VisibilityMPH,Wind Direction,Wind SpeedMPH,Gust SpeedMPH,PrecipitationIn,Events,Conditions,WindDirDegrees,DateUTC
12:51 AM,84.9,66.0,53,29.84,10.0,South,6.9,-,N/A,,Clear,190,2013-09-02 05:51:00
1:51 AM,84.9,66.0,53,29.85,10.0,South,11.5,-,N/A,,Clear,190,2013-09-02 06:51:00
2:51 AM,82.9,69.1,63,29.87,10.0,South,10.4,-,N/A,,Clear,190,2013-09-02 07:51:00
3:51 AM,82.9,70.0,65,29.87,10.0,SW,6.9,-,N/A,,Mostly Cloudy,230,2013-09-02 08:51:00
4:51 AM,82.0,69.1,65,29.86,10.0,South,10.4,-,N/A,,Clear,190,2013-09-02 09:51:00
5:51 AM,81.0,70.0,69,29.88,10.0,South,5.8,-,N/A,,Clear,180,2013-09-02 10:51:00
6:51 AM,79.0,70.0,74,29.91,10.0,Calm,Calm,-,N/A,,Partly Cloudy,0,2013-09-02 11:51:00
7:51 AM,81.0,70.0,69,29.92,10.0,Calm,Calm,-,N/A,,Partly Cloudy,0,2013-09-02 12:51:00
8:51 AM,84.9,68.0,57,29.93,10.0,Variable,3.5,-,N/A,,Clear,0,2013-09-02 13:51:00
9:51 AM,88.0,68.0,51,29.95,10.0,NE,4.6,-,N/A,,Clear,40,2013-09-02 14:51:00
10:51 AM,91.0,68.0,47,29.96,10.0,Calm,Calm,-,N/A,,Clear,0,2013-09-02 15:51:00
11:51 AM,91.9,66.9,44,29.96,10.0,NNE,9.2,-,N/A,,Clear,20,2013-09-02 16:51:00
12:51 PM,93.9,66.9,41,29.95,10.0,North,9.2,-,N/A,,Clear,350,2013-09-02 17:51:00
1:51 PM,93.0,66.9,42,29.93,10.0,North,10.4,16.1,N/A,,Clear,10,2013-09-02 18:51:00
2:51 PM,93.9,69.1,44,29.90,10.0,Variable,6.9,19.6,N/A,,Clear,0,2013-09-02 19:51:00
3:51 PM,96.1,69.1,41,29.87,10.0,North,15.0,-,N/A,,Clear,350,2013-09-02 20:51:00
4:51 PM,93.9,69.1,44,29.86,10.0,North,9.2,-,N/A,,Clear,360,2013-09-02 21:51:00
5:51 PM,93.0,68.0,44,29.84,10.0,NNE,13.8,-,N/A,,Clear,30,2013-09-02 22:51:00
6:51 PM,91.9,69.1,47,29.84,10.0,NNE,9.2,-,N/A,,Clear,20,2013-09-02 23:51:00
7:51 PM,88.0,64.9,46,29.85,10.0,NNE,5.8,-,N/A,,Clear,20,2013-09-03 00:51:00
8:51 PM,84.9,64.9,51,29.87,10.0,NE,3.5,-,N/A,,Clear,40,2013-09-03 01:51:00
9:51 PM,82.0,66.0,58,29.89,10.0,North,3.5,-,N/A,,Clear,360,2013-09-03 02:51:00
10:51 PM,80.1,66.0,62,29.89,10.0,Calm,Calm,-,N/A,,Clear,0,2013-09-03 03:51:00
11:51 PM,79.0,66.9,66,29.90,10.0,Calm,Calm,-,N/A,,Clear,0,2013-09-03 04:51:00